Vorticity
3 2 3 1 -1 1 7 6 4 2 7 9 4 2 3 5 6 1 8 3 3 2 3 4 5 2 2 0 -1 1 2 4 5 4 3 7 7 7 8 8 8 6 7 8 10 9 9 7 6
3 1 3 4 1 1 5 4 6 2 3 10 5 3 3 4 7 3 7 3 1 2 3 4 -0 0 1 3 2 3 2 7 5 3 6 5 7 9 4 7 5 7 6 6 8 8 8 9 8
6 2 1 1 1 1 1 4 4 5 9 13 4 4 3 4 5 4 7 1 -0 1 4 0 4 1 0 3 1 2 3 6 6 5 4 6 5 5 5 5 6 9 7 7 7 6 7 7 5
3 8 3 2 4 3 3 1 3 7 8 10 8 9 4 5 7 3 3 1 -0 3 2 1 1 -0 1 0 -0 2 5 7 5 3 2 4 6 5 7 7 8 10 10 7 6 4 5 6 5
3 3 9 2 0 4 2 4 3 3 6 8 10 12 6 6 7 4 1 1 -0 0 1 1 1 1 -0 -0 -0 -2 1 7 2 5 4 1 8 9 9 13 12 9 7 6 6 6 7 8 7
4 0 5 4 -0 3 3 3 4 4 5 8 13 8 8 6 9 3 2 1 0 -1 -0 -0 1 1 -1 -1 -1 1 2 3 1 7 2 1 10 9 11 12 10 8 7 7 6 8 5 5 4
6 2 3 6 2 2 5 3 3 4 4 5 9 11 9 7 9 2 4 1 -0 -1 -1 0 0 0 -2 -1 -1 -0 -2 2 2 6 6 4 9 5 10 7 4 5 5 7 6 5 1 3 5
5 4 -0 6 5 3 5 4 5 4 5 4 6 14 10 8 8 5 4 3 0 -1 -1 0 1 -1 -1 -2 -0 -0 -1 0 1 4 9 6 9 6 4 4 3 3 4 2 2 3 3 4 6
6 6 1 4 3 1 5 2 4 4 4 3 3 10 9 9 10 7 5 2 1 -1 -1 0 2 -2 -0 -1 0 -0 0 -1 0 3 7 6 11 7 6 9 7 7 7 5 5 3 5 13 11
6 5 4 -1 4 0 5 4 4 4 4 6 3 8 11 8 10 10 7 3 -0 -1 -1 -0 -0 0 -0 1 -1 2 -0 0 0 2 6 5 9 9 7 5 10 9 5 3 4 13 26 17 20
6 7 4 2 3 2 6 6 2 8 3 4 7 2 7 10 9 11 8 5 1 0 -1 -1 1 1 -0 2 1 4 -1 -1 2 2 9 3 3 9 3 6 9 7 2 1 9 14 2 11 12
8 6 4 7 -3 -2 11 -1 6 2 8 4 6 4 6 8 7 10 8 6 4 2 0 -1 1 2 4 3 3 1 -1 -1 3 1 11 0 4 6 9 2 10 6 3 1 14 3 9 13 11
8 6 5 7 3 -7 5 7 3 5 2 5 6 6 2 7 -1 8 9 6 4 4 2 2 3 3 2 2 2 1 1 3 1 4 13 2 2 6 8 5 12 6 3 2 13 8 11 13 6
10 5 5 5 10 -3 -7 10 -1 3 8 1 7 8 2 10 9 9 7 8 8 5 4 2 4 3 4 4 1 -1 0 2 2 14 8 2 2 4 8 4 11 5 3 5 10 6 11 12 8
14 10 5 6 7 5 -0 -4 21 1 1 4 2 5 8 4 4 11 8 9 9 8 7 6 7 5 4 1 -1 0 4 -0 10 7 7 5 3 3 7 9 6 4 3 6 12 7 9 10 7
10 15 9 2 6 10 4 -5 3 14 3 1 1 5 7 6 3 7 12 10 8 9 7 7 6 5 2 1 0 3 -0 4 9 5 4 5 5 7 11 11 7 3 2 7 10 7 9 10 7
16 18 15 8 3 5 6 4 -23 14 11 3 3 4 6 7 5 5 6 10 11 9 8 6 3 2 1 1 3 2 -1 7 6 5 5 5 6 10 11 10 9 4 3 7 9 6 7 12 6
29 15 17 15 9 6 5 6 7 -12 8 8 0 4 3 6 6 4 5 5 4 4 3 2 1 1 2 2 2 -2 1 5 5 5 4 7 10 10 10 8 7 4 5 7 10 8 7 10 7
8 19 17 16 11 8 6 4 7 8 -1 0 9 1 2 3 8 4 3 4 4 3 3 0 1 2 3 2 1 -1 3 5 4 5 7 10 11 11 10 7 6 6 7 7 12 7 6 8 7
14 8 19 19 12 11 7 3 4 9 8 8 -16 11 3 2 4 8 7 4 4 3 3 3 3 3 2 0 -1 1 2 6 6 7 10 12 13 11 8 5 7 7 7 7 13 8 7 7 9
11 16 12 15 16 16 8 7 4 5 6 4 7 -12 8 3 0 3 8 7 5 5 4 3 3 2 1 0 -1 2 5 7 7 9 11 12 6 4 5 7 7 7 9 6 13 7 7 6 9
11 14 13 20 8 20 12 13 6 4 5 7 3 6 -12 6 6 0 2 6 8 6 4 3 2 2 1 -1 -0 1 7 8 9 10 14 4 4 6 6 7 7 5 6 9 11 8 7 6 7
12 13 12 14 15 13 17 13 5 8 6 5 5 4 8 -4 -3 7 -0 1 2 4 5 4 3 1 -1 -1 2 8 10 9 10 10 5 4 5 7 6 7 7 7 7 12 9 7 7 6 5
18 14 10 14 16 11 13 23 6 5 7 5 6 3 5 9 4 1 6 1 -1 -1 -1 -1 -1 -1 0 4 9 8 10 12 10 6 4 5 5 6 8 7 6 7 9 10 5 5 6 6 7
15 15 12 15 12 20 10 18 13 10 9 8 5 7 6 7 12 9 6 9 8 3 1 1 3 7 9 9 9 10 10 7 4 4 5 6 7 6 7 7 8 8 8 5 5 5 6 6 6
15 10 8 13 17 8 16 24 20 14 11 9 6 9 4 3 8 7 9 8 8 10 11 11 9 7 7 7 7 9 4 1 2 4 4 5 6 7 8 7 7 6 6 5 5 5 5 6 7
15 10 21 12 10 12 26 21 16 11 14 11 7 8 7 12 8 6 7 10 9 9 9 7 6 6 6 5 6 7 2 2 2 4 5 5 7 8 8 7 6 6 6 5 5 6 6 6 5
17 22 16 11 7 5 -5 32 18 10 12 9 11 12 14 17 16 12 8 5 6 7 6 6 8 8 9 9 9 7 4 4 4 4 4 6 8 8 7 7 6 6 6 6 6 7 6 6 5
18 15 13 16 5 5 9 16 3 31 16 16 0 0 3 4 6 8 7 6 6 8 6 3 3 3 5 6 6 6 7 6 5 5 5 6 8 8 7 7 6 6 7 6 6 5 5 6 7
6 11 6 9 15 16 12 12 14 -2 10 15 11 7 21 1 5 6 7 7 7 9 12 11 8 8 8 7 7 6 6 6 6 7 8 8 8 7 7 7 7 6 6 6 6 7 8 9 8
Height
5841 5846 5848 5852 5857 5855 5855 5858 5857 5860 5862 5865 5867 5870 5874 5877 5878 5881 5881 5882 5883 5884 5884 5885 5886 5886 5886 5887 5886 5885 5883 5882 5880 5877 5875 5873 5871 5869 5867 5865 5864 5862 5860 5859 5857 5856 5854 5852 5850
5836 5840 5843 5847 5852 5852 5852 5853 5856 5860 5861 5863 5865 5867 5872 5875 5876 5878 5880 5881 5882 5883 5884 5884 5885 5885 5885 5885 5884 5883 5882 5880 5878 5876 5874 5872 5869 5867 5865 5863 5862 5860 5859 5857 5856 5854 5852 5850 5847
5830 5834 5838 5841 5846 5849 5849 5851 5854 5856 5857 5859 5863 5865 5868 5872 5874 5876 5879 5880 5881 5882 5883 5883 5884 5884 5884 5884 5883 5882 5880 5878 5876 5875 5873 5870 5868 5866 5863 5861 5859 5858 5856 5855 5853 5852 5850 5847 5845
5823 5828 5832 5835 5842 5844 5845 5849 5852 5853 5854 5857 5860 5863 5867 5870 5871 5873 5876 5878 5880 5881 5881 5882 5882 5883 5883 5882 5881 5880 5878 5876 5875 5873 5871 5869 5866 5864 5861 5859 5857 5855 5854 5852 5850 5849 5846 5844 5842
5815 5820 5824 5830 5837 5839 5841 5846 5849 5849 5851 5854 5858 5861 5863 5867 5870 5871 5873 5876 5878 5879 5880 5880 5881 5882 5882 5881 5879 5879 5877 5875 5873 5871 5869 5867 5864 5861 5859 5856 5854 5852 5850 5849 5847 5845 5843 5840 5837
5807 5813 5817 5824 5833 5833 5836 5841 5844 5846 5847 5851 5854 5857 5860 5863 5867 5869 5870 5873 5876 5877 5878 5879 5879 5880 5880 5879 5879 5877 5876 5874 5872 5869 5867 5865 5862 5859 5857 5854 5852 5850 5848 5846 5844 5841 5838 5835 5832
5799 5806 5811 5819 5826 5828 5832 5836 5838 5841 5844 5848 5851 5853 5857 5859 5863 5866 5868 5870 5872 5874 5876 5877 5878 5878 5878 5878 5877 5875 5874 5872 5870 5867 5865 5863 5860 5858 5855 5852 5850 5848 5846 5843 5841 5838 5834 5830 5826
5791 5798 5804 5813 5819 5825 5825 5831 5834 5838 5839 5843 5846 5850 5853 5854 5858 5863 5866 5868 5869 5872 5873 5875 5876 5876 5876 5876 5875 5873 5872 5870 5868 5865 5863 5861 5858 5856 5853 5850 5848 5845 5843 5840 5837 5833 5829 5824 5820
5781 5788 5797 5808 5814 5820 5819 5824 5828 5833 5836 5838 5842 5844 5847 5850 5855 5859 5861 5865 5867 5869 5871 5872 5873 5873 5873 5873 5873 5871 5870 5868 5866 5863 5860 5858 5855 5853 5850 5848 5845 5842 5839 5836 5832 5827 5822 5817 5813
5770 5781 5793 5804 5809 5813 5814 5819 5823 5827 5832 5834 5839 5841 5844 5846 5851 5854 5857 5860 5863 5866 5867 5869 5869 5870 5870 5870 5870 5868 5867 5865 5863 5861 5858 5856 5853 5850 5847 5845 5842 5839 5836 5832 5828 5822 5816 5811 5807
5764 5774 5787 5797 5801 5805 5807 5813 5816 5822 5827 5830 5834 5837 5840 5842 5845 5849 5853 5856 5859 5861 5863 5865 5866 5866 5867 5867 5866 5865 5863 5861 5859 5857 5855 5853 5850 5848 5844 5841 5838 5835 5831 5827 5822 5817 5812 5807 5803
5755 5767 5776 5787 5793 5795 5799 5805 5809 5817 5822 5825 5830 5832 5835 5837 5840 5844 5848 5852 5854 5857 5859 5860 5862 5863 5862 5862 5861 5861 5860 5858 5855 5854 5852 5850 5847 5844 5841 5837 5834 5831 5827 5823 5818 5813 5808 5804 5800
5746 5759 5768 5778 5784 5788 5790 5798 5802 5810 5817 5820 5825 5828 5830 5833 5836 5839 5843 5847 5850 5852 5855 5856 5857 5858 5859 5859 5859 5857 5855 5854 5852 5849 5847 5845 5843 5840 5837 5834 5830 5827 5823 5818 5813 5809 5805 5801 5797
5738 5746 5757 5766 5774 5781 5783 5791 5797 5804 5811 5815 5820 5823 5825 5828 5832 5835 5838 5840 5844 5847 5849 5852 5853 5854 5854 5855 5855 5853 5852 5850 5847 5845 5843 5841 5839 5836 5833 5829 5826 5822 5818 5814 5810 5806 5801 5797 5793
5732 5740 5748 5758 5766 5773 5777 5782 5792 5797 5804 5809 5814 5817 5819 5822 5827 5829 5832 5836 5838 5840 5843 5846 5847 5848 5849 5849 5849 5847 5845 5844 5842 5839 5838 5836 5833 5830 5827 5824 5821 5818 5814 5810 5807 5803 5799 5795 5790
5722 5729 5736 5752 5759 5766 5767 5777 5788 5791 5796 5802 5807 5811 5815 5817 5821 5824 5827 5830 5832 5834 5837 5840 5840 5842 5843 5843 5842 5841 5839 5837 5835 5834 5832 5830 5828 5824 5821 5818 5816 5812 5809 5806 5802 5799 5796 5792 5787
5711 5720 5732 5743 5752 5757 5760 5769 5782 5780 5788 5795 5800 5805 5809 5812 5815 5819 5822 5826 5828 5829 5831 5833 5835 5836 5836 5837 5836 5835 5833 5831 5829 5827 5826 5824 5821 5818 5815 5813 5810 5807 5804 5801 5798 5795 5792 5788 5785
5707 5712 5722 5733 5742 5747 5752 5760 5773 5775 5778 5787 5792 5797 5802 5806 5810 5812 5816 5820 5823 5825 5826 5828 5829 5830 5830 5830 5829 5828 5827 5825 5823 5821 5819 5817 5814 5812 5809 5807 5805 5802 5799 5796 5793 5790 5787 5784 5781
5695 5700 5709 5720 5727 5733 5741 5749 5760 5767 5770 5776 5784 5789 5795 5800 5803 5807 5811 5815 5817 5819 5820 5821 5822 5823 5823 5823 5823 5822 5820 5818 5816 5814 5812 5810 5808 5805 5803 5801 5799 5796 5794 5791 5788 5785 5782 5779 5777
5689 5692 5700 5710 5718 5722 5729 5736 5748 5757 5763 5769 5774 5781 5788 5792 5797 5801 5804 5807 5809 5812 5813 5814 5815 5816 5816 5816 5816 5815 5813 5811 5809 5807 5806 5803 5801 5799 5797 5795 5792 5790 5787 5785 5782 5780 5777 5774 5772
5685 5688 5696 5703 5706 5710 5717 5723 5732 5743 5753 5760 5765 5771 5777 5785 5789 5794 5797 5800 5802 5805 5806 5807 5808 5808 5809 5809 5808 5807 5805 5803 5802 5801 5799 5796 5794 5792 5790 5787 5785 5783 5781 5778 5775 5773 5771 5769 5767
5680 5685 5688 5693 5696 5700 5705 5712 5721 5736 5745 5751 5757 5761 5771 5776 5782 5787 5791 5793 5794 5795 5798 5799 5800 5801 5801 5801 5800 5799 5797 5796 5795 5793 5791 5789 5787 5785 5782 5780 5778 5775 5773 5770 5768 5765 5763 5761 5759
5676 5675 5680 5684 5688 5692 5697 5701 5716 5722 5731 5742 5749 5755 5761 5769 5773 5778 5783 5785 5786 5788 5789 5791 5791 5792 5793 5792 5791 5790 5789 5788 5786 5785 5783 5781 5779 5777 5774 5772 5769 5767 5764 5762 5759 5758 5755 5753 5751
5665 5670 5674 5676 5680 5681 5691 5694 5704 5712 5725 5734 5741 5747 5753 5760 5765 5769 5773 5776 5778 5780 5781 5782 5783 5784 5784 5784 5783 5781 5780 5779 5778 5777 5775 5772 5770 5768 5765 5763 5761 5758 5755 5753 5750 5748 5747 5745 5742
5660 5664 5667 5669 5671 5676 5687 5688 5697 5706 5715 5725 5734 5740 5746 5751 5756 5760 5763 5766 5768 5770 5771 5773 5774 5775 5775 5774 5773 5772 5771 5770 5769 5767 5766 5763 5761 5758 5756 5754 5751 5749 5746 5743 5741 5739 5737 5734 5732
5657 5659 5661 5663 5668 5677 5679 5677 5689 5699 5706 5715 5722 5729 5735 5741 5745 5749 5752 5755 5757 5760 5762 5763 5764 5764 5764 5764 5763 5762 5761 5760 5759 5758 5756 5754 5751 5748 5746 5744 5741 5738 5736 5734 5731 5728 5726 5724 5721
5653 5655 5660 5660 5664 5668 5672 5676 5683 5691 5698 5706 5714 5721 5727 5732 5736 5739 5741 5744 5747 5749 5751 5752 5753 5754 5754 5753 5752 5751 5751 5750 5748 5747 5745 5743 5740 5738 5735 5733 5730 5727 5725 5722 5720 5717 5714 5712 5709
5649 5651 5653 5656 5659 5662 5667 5670 5676 5684 5693 5700 5707 5714 5718 5722 5726 5729 5731 5734 5736 5738 5740 5741 5742 5742 5742 5742 5741 5740 5739 5738 5737 5735 5733 5731 5729 5726 5723 5721 5718 5716 5713 5710 5708 5705 5702 5699 5696
5648 5649 5650 5652 5654 5657 5661 5667 5676 5680 5686 5693 5698 5704 5708 5711 5715 5718 5721 5723 5726 5727 5728 5729 5730 5730 5730 5730 5729 5728 5727 5726 5724 5723 5720 5718 5716 5714 5711 5708 5706 5703 5700 5697 5694 5691 5688 5685 5682
5641 5644 5647 5648 5653 5654 5655 5660 5666 5672 5677 5684 5689 5693 5697 5701 5705 5708 5710 5713 5714 5716 5717 5718 5718 5719 5719 5718 5717 5716 5715 5713 5711 5709 5707 5705 5702 5700 5698 5695 5692 5689 5685 5682 5679 5676 5674 5670 5667